LIVE Streaming HD
Get Adobe Flash player
Annunci di Google
SATELLITE
Annuci di Google
Dati meteo stazione (refresh automatico ogni minuto)
Senigallia(AN) VENTO: VELOCITÀ   PIOGGIA: QTA GIORNO TEMPERATURA: ATTUALE
SPOT: Darsena Di Senigallia RAFFICA MASSIMA: QTA MENSILE: MASSIMA:
VELOCITÀ MEDIA: QTA ANNUALE: MINIMA:
DIREZIONE: UMIDITÀ: WIND CHILL:
TIPO: DEW POINT:
BEAUFORT: PRESSIONE:
I nostri partner
Senigallia(AN) nelle ultime ore
Applica filtri in visualizzazione Intervallo delle letture nelle ultime

Ora Direzione Vento Velocita' Vento Media Vento Raffica Max. Temperatura Wind Chill Pioggia Pressione
06:11:03212 °(SSW)3.5 Kts6.1 Kts9.6 Kts-63.2 °C-75.8 °C0 mm1017.2 Hpa
06:06:07219 °(SW)7.8 Kts5.2 Kts9.6 Kts-63.2 °C-72.2 °C0 mm1017.3 Hpa
06:01:09228 °(SW)7 Kts6.1 Kts9.6 Kts-63.2 °C-75.8 °C0 mm1017.2 Hpa
05:56:10218 °(SW)5.2 Kts5.2 Kts9.6 Kts-63.2 °C-72.2 °C0 mm1017.3 Hpa
05:51:12223 °(SW)6.1 Kts5.2 Kts9.6 Kts-63.2 °C-72.2 °C0 mm1017.2 Hpa
05:46:10232 °(SW)4.3 Kts5.2 Kts9.6 Kts-63.2 °C-72.2 °C0 mm1017 Hpa
05:41:04238 °(WSW)7.8 Kts5.2 Kts9.6 Kts-64.5 °C-73.6 °C0 mm1017.1 Hpa
05:36:05227 °(SW)6.1 Kts5.2 Kts9.6 Kts-64.5 °C-73.6 °C0 mm1017 Hpa
05:31:08233 °(SW)4.3 Kts6.1 Kts9.6 Kts-64.5 °C-77.2 °C0 mm1017.1 Hpa
05:26:11219 °(SW)6.1 Kts5.2 Kts9.6 Kts-64.5 °C-73.6 °C0 mm1017 Hpa
05:21:13237 °(WSW)5.2 Kts5.2 Kts9.6 Kts-64.5 °C-73.6 °C0 mm1017 Hpa
05:16:14203 °(SSW)4.3 Kts5.2 Kts9.6 Kts-64.5 °C-73.6 °C0 mm1017 Hpa
05:10:35212 °(SSW)3.5 Kts5.2 Kts9.6 Kts-64.5 °C-73.6 °C0 mm1017 Hpa
05:05:38225 °(SW)6.1 Kts5.2 Kts9.6 Kts-64.5 °C-73.6 °C0 mm1017 Hpa
05:00:41218 °(SW)5.2 Kts5.2 Kts9.6 Kts-64.5 °C-73.6 °C0 mm1017 Hpa
04:55:42229 °(SW)5.2 Kts5.2 Kts9.6 Kts-64.5 °C-73.6 °C0 mm1017 Hpa
04:50:47220 °(SW)6.1 Kts4.3 Kts9.6 Kts-64.5 °C-69.9 °C0 mm1017 Hpa
04:45:52220 °(SW)4.3 Kts4.3 Kts9.6 Kts-64.5 °C-69.9 °C0 mm1017 Hpa
04:40:45220 °(SW)2.6 Kts5.2 Kts9.6 Kts-64.5 °C-73.6 °C0 mm1017.1 Hpa
04:35:07226 °(SW)6.1 Kts6.1 Kts9.6 Kts-64.5 °C-77.2 °C0 mm1017 Hpa
04:30:46223 °(SW)8.7 Kts5.2 Kts8.7 Kts-64.5 °C-73.6 °C0 mm1017 Hpa
04:25:48259 °(W)4.3 Kts6.1 Kts8.7 Kts-64.5 °C-77.2 °C0 mm1017 Hpa
04:20:52223 °(SW)6.1 Kts5.2 Kts8.7 Kts-64.5 °C-73.6 °C0 mm1017.1 Hpa
04:15:53221 °(SW)6.1 Kts5.2 Kts8.7 Kts-64.5 °C-73.6 °C0 mm1017 Hpa